Content
SEND FEEDBACK

Daily
Averages
Monthly
Summary
Canada

HAMILTON, ONTARIO


Home > North America > Canada > Ontario
Elevation: 776 feet     Latitude: 43 10N     Longitude: 079 55W

WEATHER
 
SELECT A DAY
Number of Records: 168,045;   Date Range: 1/1/95 - 9/15/14
 
SHARE

PRINT THIS DATA

[ ← Previous Day ]
WEATHER ALMANAC - AUGUST 18, 2013
[ Next Day → ]
[ °C ]   °F
Weather ElementAverageHighLow
Temperature67.8 °F78.8 °F (4:00 pm)57.2 °F (6:00 am)
Dewpoint57.8 °F62.6 °F (10:00 am)55.4 °F (1:00 am)
Humidity72.5 %100 % (5:00 am)39 % (2:00 pm)
Barometer30.21 in30.26 in (9:00 am)30.13 in (9:00 pm)
Wind Speed4.7 mph9.2 mph (7:00 pm)
Weather ElementAverage
Visibility13 mi
Wind DirectionESE (104 °)

Weather ElementTotal
Precipitation---
Cooling Degree Days3 (Base 65)
Growing Degree Days18 (Base 50)
Averaged from 26 records on August 18, 2013
WEATHER CONDITIONS BREAKOUT
WIND DIRECTION BREAKOUT
WEATHER BY HOUR - AUGUST 18, 2013
[ °C ]   °F
Local TimeTemperatureDewpointHumidityBarometerVisibilityWind DirectionWind SpeedGust SpeedPrecipitationEventsConditions
1:00 AM60.8 °F55.4 °F82 %30.25 in15.0 miNNE (30°)4.6 mphScattered Clouds
2:00 AM61.0 °F58.0 °F86 %30.24 in15.0 miCalmScattered Clouds
2:00 AM60.8 °F57.2 °F88 %30.24 in15.0 miNE (50°)5.8 mphScattered Clouds
3:00 AM60.8 °F59.0 °F94 %30.23 in12.0 miNE (40°)4.6 mphScattered Clouds
4:00 AM59.0 °F57.2 °F94 %30.23 in10.0 miENE (60°)4.6 mphPartly Cloudy
5:00 AM59.0 °F59.0 °F100 %30.23 in8.0 miNNE (20°)5.8 mphFogShallow Fog
6:00 AM57.2 °F57.2 °F100 %30.24 in3.0 miNNE (30°)4.6 mphMostly Cloudy
7:00 AM59.0 °F57.2 °F94 %30.24 in15.0 miNNE (30°)5.8 mphPartly Cloudy
8:00 AM62.0 °F60.0 °F90 %30.25 in7.0 miNNE (30°)5.8 mphScattered Clouds
8:00 AM62.6 °F60.8 °F94 %30.25 in7.0 miNNE (30°)5.8 mphPartly Cloudy
9:00 AM66.2 °F60.8 °F83 %30.26 in9.0 miENE (60°)5.8 mphPartly Cloudy
10:00 AM68.0 °F62.6 °F83 %30.26 in12.0 miEast (80°)3.5 mphScattered Clouds
11:00 AM73.4 °F62.6 °F69 %30.25 in15.0 miCalmMostly Cloudy
12:00 PM75.2 °F60.8 °F61 %30.24 in15.0 miSE (130°)2.3 mphMostly Cloudy
1:00 PM77.0 °F60.8 °F57 %30.22 in15.0 miSSE (160°)3.5 mphMostly Cloudy
2:00 PM76.0 °F56.0 °F39 %30.20 in15.0 miENE (70°)4.6 mphMostly Cloudy
2:00 PM75.2 °F55.4 °F50 %30.20 in15.0 miNE (50°)3.5 mphMostly Cloudy
3:00 PM77.0 °F57.2 °F50 %30.18 in15.0 miESE (120°)5.8 mphMostly Cloudy
4:00 PM78.8 °F57.2 °F47 %30.17 in15.0 miSSW (200°)4.6 mphMostly Cloudy
5:00 PM78.8 °F55.4 °F44 %30.16 in15.0 miSSW (200°)5.8 mphScattered Clouds
6:00 PM77.0 °F57.2 °F50 %30.15 in15.0 miSouth (170°)5.8 mphScattered Clouds
7:00 PM75.2 °F55.4 °F50 %30.14 in15.0 miSouth (170°)9.2 mphPartly Cloudy
8:00 PM69.8 °F55.4 °F60 %30.14 in15.0 miSouth (180°)6.9 mphPartly Cloudy
9:00 PM68.0 °F55.4 °F64 %30.13 in15.0 miSW (230°)3.5 mphPartly Cloudy
10:00 PM64.4 °F55.4 °F73 %30.14 in15.0 miWSW (240°)4.6 mphPartly Cloudy
11:00 PM60.8 °F55.4 °F82 %30.14 in15.0 miSW (220°)4.6 mphPartly Cloudy
Hourly data recorded from CYHM, located miles away from Hamilton, Ontario







STORIES FROM OUR PARTNERS